Terminal Aerodrome Forecast
Issued by NWS Atlanta, GA

Home | Current Version | Previous Version | Text Only | Print | Product List | Glossary On
Versions: 1 2 3 4 5 6 7 8 9 10 11 12 13 14 15 16 17 18 19 20 21 22 23 24 25 26 27 28 29 30 31 32 33 34 35 36 37 38 39 40 41
000
FTUS42 KFFC 170900 AAB
TAFATL
TAF AMD
KATL 170957Z 1710/1812 10010KT P6SM SCT250
     FM171200 08012KT P6SM SCT250
     FM171600 10013G20KT P6SM SCT040 BKN250
     FM180200 10010KT P6SM BKN035
     FM180600 07010KT P6SM BKN030=

USA.gov is the U.S. government's official web portal to all federal, state and local government web resources and services.